#timestamp,LO_Frequency,Hit,Temp,Hum 
1478332815.6,286046990.8,N,0.0,0.0
1478332835.4,286046992.8,N,0.0,0.0
1478332855.3,286046990.8,N,0.0,0.0
1478332875.1,286046990.1,N,0.0,0.0
1478332895.8,286046992.8,N,0.0,0.0
1478332915.7,286046992.4,N,0.0,0.0
1478332935.5,286046992.5,N,0.0,0.0
1478332955.3,286046992.3,N,0.0,0.0
1478332975.2,286046994.7,N,0.0,0.0
1478332995.9,286046992.2,N,0.0,0.0
1478333015.7,286046994.5,N,0.0,0.0
1478333035.6,286046996.3,N,0.0,0.0
1478333055.4,286046997.1,N,0.0,0.0
1478333075.2,286046998.1,N,0.0,0.0
1478333095.0,286047001.7,N,0.0,0.0
1478333096.0,286047001.7,N,0.0,0.0
1478333115.8,286047004.8,N,0.0,0.0
1478333135.6,286047004.5,N,0.0,0.0
1478333155.4,286047010.5,N,0.0,0.0
1478333175.3,286047009.6,N,0.0,0.0
1478333195.1,286047011.3,N,0.0,0.0
1478333215.8,286047012.6,N,0.0,0.0
1478333235.7,286047012.8,N,0.0,0.0
1478333255.5,286047015.8,N,0.0,0.0
1478333275.3,286047018.7,N,0.0,0.0
1478333295.2,286047021.8,N,0.0,0.0
1478333315.9,286047019.4,N,0.0,0.0
1478333335.7,286047021.2,N,0.0,0.0
1478333355.6,286047023.6,N,0.0,0.0
1478333375.4,286047022.9,N,0.0,0.0
1478333395.2,286047024.9,N,0.0,0.0
1478333415.1,286047025.8,N,0.0,0.0
1478333416.0,286047025.8,N,0.0,0.0
1478333435.8,286047024.9,N,0.0,0.0
1478333455.6,286047024.9,N,0.0,0.0
1478333475.5,286047025.5,N,0.0,0.0
1478333495.3,286047029.6,N,0.0,0.0
1478333515.1,286047029.9,N,0.0,0.0
1478333535.8,286047025.3,N,0.0,0.0
1478333555.7,286047023.9,N,0.0,0.0
1478333575.5,286047025.4,N,0.0,0.0
1478333595.3,286047029.5,N,0.0,0.0
1478333615.2,286047026.0,N,0.0,0.0
1478333635.0,286047027.0,N,0.0,0.0
1478333635.9,286047027.0,N,0.0,0.0
1478333655.7,286047028.0,N,0.0,0.0
1478333675.6,286047022.5,N,0.0,0.0
1478333695.4,286047021.4,N,0.0,0.0
1478333715.2,286047017.5,N,0.0,0.0
1478333735.1,286047016.1,N,0.0,0.0
1478333736.0,286047016.1,N,0.0,0.0
1478333755.8,286047013.0,N,0.0,0.0
1478333775.6,286047012.2,N,0.0,0.0
1478333795.5,286047006.3,N,0.0,0.0
1478333815.3,286047002.9,N,0.0,0.0
1478333835.1,286047001.3,N,0.0,0.0
1478333855.9,286047002.6,N,0.0,0.0
1478333875.7,286046998.2,N,0.0,0.0
1478333895.5,286046998.7,N,0.0,0.0
1478333915.4,286046996.7,N,0.0,0.0
1478333935.2,286047000.5,N,0.0,0.0
1478333955.0,286046999.4,N,0.0,0.0
1478333955.9,286046999.4,N,0.0,0.0
1478333975.8,286046997.1,N,0.0,0.0
1478333995.6,286046995.2,N,0.0,0.0
1478334015.4,286046993.6,N,0.0,0.0
1478334035.2,286046996.2,N,0.0,0.0
1478334055.1,286046994.1,N,0.0,0.0
1478334056.0,286046994.1,N,0.0,0.0
1478334075.8,286046994.8,N,0.0,0.0
1478334095.6,286046994.3,N,0.0,0.0
1478334115.5,286046992.0,N,0.0,0.0
1478334135.3,286046992.3,N,0.0,0.0
1478334155.1,286046992.9,N,0.0,0.0
1478334175.9,286046990.8,N,0.0,0.0
1478334195.7,286046990.1,N,0.0,0.0
1478334215.5,286046991.0,N,0.0,0.0
1478334235.4,286046990.6,N,0.0,0.0
1478334255.2,286046988.7,N,0.0,0.0
1478334275.0,286046987.0,N,0.0,0.0
1478334275.9,286046987.0,N,0.0,0.0
1478334295.8,286046987.2,N,0.0,0.0
1478334315.6,286046985.5,N,0.0,0.0
1478334335.4,286046986.0,N,0.0,0.0
1478334355.3,286046986.4,N,0.0,0.0
1478334375.1,286046984.0,N,0.0,0.0
1478334376.0,286046984.0,N,0.0,0.0
1478334395.8,286046984.2,N,0.0,0.0
1478334415.7,286046984.9,N,0.0,0.0
1478334435.5,286046985.2,N,0.0,0.0
1478334455.3,286046982.6,N,0.0,0.0
1478334475.2,286046982.8,N,0.0,0.0
1478334495.9,286046983.4,N,0.0,0.0
1478334515.7,286046983.0,N,0.0,0.0
1478334535.5,286046980.5,N,0.0,0.0
1478334555.4,286046983.1,N,0.0,0.0
1478334575.2,286046980.8,N,0.0,0.0
1478334595.0,286046981.3,N,0.0,0.0
1478334595.9,286046981.3,N,0.0,0.0
1478334615.8,286046979.3,N,0.0,0.0
1478334635.6,286046980.6,N,0.0,0.0
1478334655.4,286046981.6,N,0.0,0.0
1478334675.3,286046979.1,N,0.0,0.0
1478334695.1,286046980.1,N,0.0,0.0
1478334715.8,286046983.5,N,0.0,0.0
1478334735.7,286046978.5,N,0.0,0.0
1478334755.5,286046979.9,N,0.0,0.0
1478334775.3,286046980.0,N,0.0,0.0
1478334795.2,286046977.8,N,0.0,0.0
1478334815.9,286046978.3,N,0.0,0.0
1478334835.7,286046976.0,N,0.0,0.0
1478334855.6,286046977.2,N,0.0,0.0
1478334875.4,286046974.2,N,0.0,0.0
1478334895.2,286046976.3,N,0.0,0.0
1478334915.0,286046974.3,N,0.0,0.0
1478334916.0,286046974.3,N,0.0,0.0
1478334935.8,286046975.0,N,0.0,0.0
1478334955.6,286046975.0,N,0.0,0.0
1478334975.4,286046974.3,N,0.0,0.0
1478334995.3,286046975.6,N,0.0,0.0
1478335015.1,286046971.0,N,0.0,0.0
1478335035.8,286046973.8,N,0.0,0.0
1478335055.7,286046973.6,N,0.0,0.0
1478335075.5,286046973.4,N,0.0,0.0
1478335095.3,286046974.0,N,0.0,0.0
1478335115.2,286046973.0,N,0.0,0.0
1478335135.9,286046973.4,N,0.0,0.0
1478335155.7,286046975.1,N,0.0,0.0
1478335175.6,286046975.6,N,0.0,0.0
1478335195.4,286046974.0,N,0.0,0.0
1478335215.2,286046973.7,N,0.0,0.0
1478335235.1,286046972.8,N,0.0,0.0
1478335236.0,286046972.8,N,0.0,0.0
1478335255.8,286046973.0,N,0.0,0.0
1478335275.6,286046973.2,N,0.0,0.0
1478335295.5,286046972.8,N,0.0,0.0
1478335315.3,286046971.4,N,0.0,0.0
1478335335.1,286046971.1,N,0.0,0.0
1478335355.8,286046971.1,N,0.0,0.0
1478335375.7,286046972.1,N,0.0,0.0
1478335395.5,286046971.6,N,0.0,0.0
1478335415.3,286046972.4,N,0.0,0.0
1478335435.2,286046969.6,N,0.0,0.0
1478335455.0,286046969.5,N,0.0,0.0
1478335455.9,286046969.5,N,0.0,0.0
1478335475.7,286046970.2,N,0.0,0.0
1478335495.6,286046967.7,N,0.0,0.0
1478335515.4,286046970.1,N,0.0,0.0
1478335535.2,286046970.4,N,0.0,0.0
1478335555.1,286046970.4,N,0.0,0.0
1478335556.0,286046970.4,N,0.0,0.0
1478335575.8,286046970.6,N,0.0,0.0
1478335595.6,286046967.7,N,0.0,0.0
1478335615.5,286046970.2,N,0.0,0.0
1478335635.3,286046970.5,N,0.0,0.0
1478335655.1,286046969.6,N,0.0,0.0
1478335675.9,286046970.4,N,0.0,0.0
1478335695.7,286046967.9,N,0.0,0.0
1478335715.5,286046969.0,N,0.0,0.0
1478335735.4,286046969.0,N,0.0,0.0
1478335755.2,286046967.0,N,0.0,0.0
1478335775.0,286046967.4,N,0.0,0.0
1478335775.9,286046967.4,N,0.0,0.0
1478335795.8,286046966.0,N,0.0,0.0
1478335815.6,286046967.2,N,0.0,0.0
1478335835.4,286046967.1,N,0.0,0.0
1478335855.2,286046964.6,N,0.0,0.0
1478335875.1,286046966.8,N,0.0,0.0
1478335876.0,286046966.8,N,0.0,0.0
1478335895.8,286046967.6,N,0.0,0.0
1478335915.6,286046968.7,N,0.0,0.0
1478335935.5,286046967.3,N,0.0,0.0
1478335955.3,286046966.3,N,0.0,0.0
1478335975.1,286046967.0,N,0.0,0.0
1478335995.9,286046968.6,N,0.0,0.0
1478336015.7,286046966.2,N,0.0,0.0
1478336035.5,286046968.9,N,0.0,0.0
1478336055.4,286046968.7,N,0.0,0.0
1478336075.2,286046968.8,N,0.0,0.0
1478336095.0,286046945.7,N,0.0,0.0
1478336095.9,286046945.7,N,0.0,0.0
1478336115.8,286046962.9,N,0.0,0.0
1478336135.6,286046965.4,N,0.0,0.0
1478336155.4,286046964.7,N,0.0,0.0
1478336175.3,286046965.5,N,0.0,0.0
1478336195.1,286046961.4,N,0.0,0.0
1478336196.0,286046961.4,N,0.0,0.0
1478336215.8,286046964.9,N,0.0,0.0
1478336235.7,286046965.7,N,0.0,0.0
1478336255.5,286046963.6,N,0.0,0.0
1478336275.3,286046963.0,N,0.0,0.0
1478336295.2,286046963.1,N,0.0,0.0
1478336315.9,286046963.6,N,0.0,0.0
1478336335.7,286046963.2,N,0.0,0.0
1478336355.5,286046961.6,N,0.0,0.0
1478336375.4,286046962.2,N,0.0,0.0
1478336395.2,286046962.1,N,0.0,0.0
